CW5586 Weather Reports


time (UTC)temp
C
wind
direction
speed
KPH
gust
KPH
rain 1hr
cm
rain 24hr
cm
rain mn
cm
humidity
%
barometer
mb
20260502180115 17 267 12.9 16.1 0.00 0.00 0.00 53 1011.0
20260502164104 20 227 9.7 20.9 0.00 0.00 0.00 46 1011.2
20260502163104 20 202 12.9 20.9 0.00 0.00 0.00 46 1011.3
20260502161604 20 212 8.0 16.1 0.00 0.00 0.00 46 1011.5
20260502160115 21 232 8.0 19.3 0.00 0.00 0.00 47 1011.6
20260502151603 21 232 8.0 19.3 0.00 0.00 0.00 45 1011.9
20260502150604 21 186 4.8 19.3 0.00 0.00 0.00 45 1012.0
20260502140115 21 197 4.8 22.5 0.00 0.00 0.00 45 1012.7
20260502123604 21 252 12.9 24.1 0.00 0.00 0.00 45 1013.4
20260502121604 21 221 14.5 22.5 0.00 0.00 0.00 46 1013.9
20260502121104 21 207 9.7 27.4 0.00 0.00 0.00 46 1013.8
20260502120603 21 130 8.0 27.4 0.00 0.00 0.00 46 1014.0
20260502113603 21 195 9.7 20.9 0.00 0.00 0.00 46 1014.2
20260502111604 21 167 12.9 19.3 0.00 0.00 0.00 45 1014.4
20260502110603 21 188 11.3 24.1 0.00 0.00 0.00 44 1014.4
20260502103603 20 215 8.0 20.9 0.00 0.00 0.00 46 1014.7
20260502103104 20 205 8.0 19.3 0.00 0.00 0.00 48 1014.8
20260502101104 20 238 8.0 19.3 0.00 0.00 0.00 49 1014.9
20260502100604 20 211 4.8 12.9 0.00 0.00 0.00 50 1015.0
20260502100115 20 202 4.8 20.9 0.00 0.00 0.00 51 1015.0
20260502090604 18 242 16.1 16.1 0.00 0.00 0.00 51 1015.5
20260502090114 18 221 8.0 20.9 0.00 0.00 0.00 52 1015.6
20260502070604 15 212 9.7 16.1 0.00 0.00 0.00 62 1016.2
20260502070115 15 209 4.8 19.3 0.00 0.00 0.00 62 1016.3
20260502063604 13 188 8.0 14.5 0.00 0.00 0.00 65 1016.5
20260502063103 13 183 8.0 19.3 0.00 0.00 0.00 66 1016.5
20260502061604 12 152 9.7 19.3 0.00 0.00 0.00 67 1016.6
20260502061103 12 183 4.8 16.1 0.00 0.00 0.00 68 1016.7
20260502060115 12 190 4.8 16.1 0.00 0.00 0.00 68 1016.8
20260502053604 11 190 4.8 9.7 0.00 0.00 0.00 72 1017.0
20260502051603 10 191 3.2 8.0 0.00 0.00 0.00 76 1017.1
20260502051104 10 211 3.2 3.2 0.00 0.00 0.00 77 1017.1
20260502050604 10 183 3.2 8.0 0.00 0.00 0.00 78 1017.2
20260502044104 8 142 4.8 4.8 0.00 0.00 0.00 84 1017.4
20260502043604 8 168 3.2 9.7 0.00 0.00 0.00 86 1017.5
20260502043104 7 138 3.2 9.7 0.00 0.00 0.00 88 1017.5
20260502040605 7 0 0.0 3.2 0.00 0.00 0.00 88 1017.8
20260502040115 6 138 1.6 3.2 0.00 0.00 0.00 88 1017.8
20260502034605 7 100 3.2 3.2 0.00 0.00 0.00 86 1018.0
20260502034104 7 0 0.0 3.2 0.00 0.00 0.00 88 1018.1
20260502033603 6 0 0.0 3.2 0.00 0.00 0.00 86 1018.2
20260502024604 6 0 0.0 0.0 0.00 0.00 0.00 86 1018.9
20260502024103 6 0 0.0 0.0 0.00 0.00 0.00 87 1019.0
20260502023104 6 0 0.0 4.8 0.00 0.00 0.00 86 1019.1
20260502021604 6 0 0.0 4.8 0.00 0.00 0.00 85 1019.3
20260502021104 6 0 0.0 0.0 0.00 0.00 0.00 84 1019.3
20260502014603 6 0 0.0 0.0 0.00 0.00 0.00 82 1019.6
20260502013603 7 0 0.0 0.0 0.00 0.00 0.00 82 1019.7
20260502013104 7 0 0.0 0.0 0.00 0.00 0.00 82 1019.8
20260502010603 7 0 0.0 0.0 0.00 0.00 0.00 81 1020.1
20260502004604 7 0 0.0 0.0 0.00 0.00 0.00 80 1020.4
20260502004104 7 0 0.0 0.0 0.00 0.00 0.00 79 1020.5
20260502003104 7 0 0.0 1.6 0.00 0.00 0.00 78 1020.6
20260502000603 6 153 0.0 1.6 0.00 0.00 0.00 79 1020.8
20260501234104 7 0 0.0 3.2 0.00 0.00 0.00 74 1020.9
20260501231103 7 99 3.2 4.8 0.00 0.00 0.00 74 1021.2
20260501230605 7 0 0.0 0.0 0.00 0.00 0.00 73 1021.3
20260501224604 7 0 0.0 3.2 0.00 0.00 0.00 72 1021.4
20260501221107 8 0 0.0 3.2 0.00 0.00 0.00 71 1021.6
20260501220605 8 0 0.0 3.2 0.00 0.00 0.00 71 1021.6
20260501214604 8 0 0.0 3.2 0.00 0.00 0.00 69 1021.7
20260501214104 8 0 0.0 3.2 0.00 0.00 0.00 69 1021.8
20260501213104 9 194 1.6 3.2 0.00 0.00 0.00 68 1021.9
20260501211604 9 0 0.0 1.6 0.00 0.00 0.00 68 1022.0
20260501211103 9 0 0.0 3.2 0.00 0.00 0.00 68 1022.0
20260501210604 9 236 1.6 3.2 0.00 0.00 0.00 67 1022.1
20260501204604 10 65 1.6 3.2 0.00 0.00 0.00 67 1022.3
20260501203604 10 65 3.2 3.2 0.00 0.00 0.00 66 1022.4
20260501203104 10 97 1.6 3.2 0.00 0.00 0.00 64 1022.4
20260501194603 12 217 3.2 4.8 0.00 0.00 0.00 58 1022.7
20260501194104 12 179 1.6 3.2 0.00 0.00 0.00 58 1022.8
20260501193603 12 0 0.0 3.2 0.00 0.00 0.00 57 1022.9
20260501191603 13 0 0.0 1.6 0.00 0.00 0.00 50 1022.9
20260501191103 14 200 1.6 3.2 0.00 0.00 0.00 49 1022.9
20260501190114 15 233 3.2 4.8 0.00 0.00 0.00 47 1023.0
20260501183604 16 209 3.2 4.8 0.00 0.00 0.00 44 1023.1
20260501183103 16 278 1.6 11.3 0.00 0.00 0.00 44 1023.1